Дата Пункты Температура Давл., мм. Влажн., % Ветер Погодные явления
Воздуха Воды Направл. Скорость
26.12.18 02:00 Одесса 2.0 4.0 760 69 З 2 14 ГОДИН
26.12.18 08:00 Одесса -1.0 4.0 761 75 Пн-З 2 08 ГОДИН
26.12.18 05:00 Одесса -1.0 4.0 761 70 Пн-З 3 05 ГОДИН
26.12.18 02:00 Одесса -2.0 4.0 761 74 Пн-З 3 02 ГОДИНИ
25.12.18 11:00 Одесса -2.0 4.0 760 72 Пн-З 3 23 ГОДИНИ
25.12.18 08:00 Одесса -2.0 4.0 759 73 З 2 20 ГОДИН
25.12.18 11:00 Одесса 1.0 4.0 756 67 Пн-З 4 11 ГОДИН
25.12.18 08:00 Одесса -1.0 4.0 755 78 Пн-З 4 08 ГОДИН
25.12.18 05:00 Одесса 1.0 4.0 751 79 Пн-З 9 05 ГОДИН
25.12.18 02:00 Одесса 2.0 4.0 750 91 Пн-З 6 02 ГОДИНИ
24.12.18 11:00 Одесса 1.0 4.0 748 95 Пн-З 5 23 ГОДИНИ
24.12.18 08:00 Одесса 5.0 4.0 747 96 Пн 1 20 ГОДИН
24.12.18 05:00 Одесса 4.0 4.0 750 96 Пд 1 17 ГОДИН
24.12.18 02:00 Одесса 6.0 4.0 752 91 Пд-З 4 14 ГОДИН
24.12.18 11:00 Одесса 5.0 4.0 755 83 Пд 2 11 ГОДИН
24.12.18 08:00 Одесса 2.0 4.0 757 70 Пд-З 2 08 ГОДИН
24.12.18 05:00 Одесса -1.0 4.0 758 86 З 2 05 ГОДИН
24.12.18 02:00 Одесса -1.0 4.0 760 83 З 2 02 ГОДИНИ
23.12.18 11:00 Одесса 1.0 4.0 759 83 З 4 23 ГОДИНИ
23.12.18 08:00 Одесса 3.0 4.0 759 79 З 3 20 ГОДИН
Количество строк
1 2 3 4 5 6 7 8 9 10
Page 9 of 448